{"data":{"norad_id":57763,"intl_designator":"2023-133G","name":"WILDFIRE 6","alt_names":[],"object_type":"PAYLOAD","status":"ACTIVE","operator":null,"country":"US","launch_date":"2023-09-02","launch_site_code":"AFWTR","launch_vehicle":null,"mission":null,"orbit_class":"UNKNOWN","rcs_meters":null,"size_class":null,"mass_kg":null,"dimensions":null,"purposes":[],"wikipedia_slug":null,"has_3d_model":false,"image_url":null,"decayed_at":null,"tle_current":{"epoch":"2026-09-21T17:30:07.133472Z","epoch_age_seconds":199853,"freshness":"STALE","line1":"1 57763U 23133G   26264.72924923  .00000060  00000+0  43082-4 0  9994","line2":"2 57763  80.9915 274.3851 0007521 116.6589 243.5338 13.85765775154386","mean_motion":13.85765775,"eccentricity":0.0007521,"inclination_deg":80.9915,"raan_deg":274.3851,"arg_perigee_deg":116.6589,"mean_anomaly_deg":243.5338,"bstar":4.3082e-5,"rev_number":15438,"period_min":103.91366463066,"perigee_km":938.0005970056,"apogee_km":949.01381421968,"semimajor_km":7321.6442056126,"source":"CELESTRAK","updated_at":"2026-09-23T09:00:18.338385Z"}}}